Montague, CA

6:25 PM PST on February 18, 2018 (GMT -0800)
Siskiyou County

Weather History for KSIY - January, 2013

Change the Weather History Date:

Sunday, January 20, 2013

  Actual Average Record
Temperature  
Mean Temperature 29 °F 35 °F  
Max Temperature 44 °F 45 °F 58 °F (1970)
Min Temperature 13 °F 26 °F 7 °F (1949)
Degree Days  
Heating Degree Days 36 30  
Month to date heating degree days 727 600  
Since 1 July heating degree days 2650 2833  
Cooling Degree Days 0 0  
Month to date cooling degree days 0 0  
Year to date cooling degree days 0 0  
Moisture  
Dew Point 19 °F    
Average Humidity 74    
Maximum Humidity 92    
Minimum Humidity 40    
Precipitation  
Precipitation 0.00 in 0.05 in 1.40 in (1993)
Month to date precipitation 0.36 1.72  
Year to date precipitation 0.36 1.72  
Sea Level Pressure  
Sea Level Pressure 30.46 in    
Wind  
Wind Speed 1 mph (SSW)    
Max Wind Speed 6 mph    
Max Gust Speed 7 mph    
Visibility 10 miles    
Events      
T = Trace of Precipitation, MM = Missing Value Source: NWS Daily Summary

Daily Weather History Graph

Daily Weather History Graph

Search for Another Location

Airport or City:

Trip Planner

Search our weather history database for the weather conditions in past years. The results will help you decide how hot, cold, wet, or windy it might be!

Date:

Astronomy

Jan. 20, 2013 Rise Set
Actual Time 7:31 AM PST 5:10 PM PST
Civil Twilight 7:01 AM PST 5:40 PM PST
Nautical Twilight 6:27 AM PST 6:15 PM PST
Astronomical Twilight 5:54 AM PST 6:48 PM PST
Moon 12:15 PM PST (1/20) 2:08 AM PST (1/20)
Length of Visible Light 10h 39m
Length of Day
9h 38m
Waxing Gibbous, 67% of the Moon is Illuminated
Jan 20
Waxing Gibbous
Jan 26
Full
Feb 3
Last Quarter
Feb 9
New
Feb 17
First Quarter

Hourly Weather History & Observations

Time (PST) Temp. Windchill Dew Point Humidity Pressure Visibility Wind Dir Wind Speed Gust Speed Precip Events Conditions
12:53 AM 21.9 °F - 18.0 °F 85% 30.47 in 10.0 mi Calm Calm - N/A   Clear
1:53 AM 19.9 °F - 17.1 °F 89% 30.48 in 10.0 mi Calm Calm - N/A   Clear
2:53 AM 19.9 °F - 16.0 °F 85% 30.49 in 10.0 mi Calm Calm - N/A   Clear
4:53 AM 17.1 °F - 12.9 °F 84% 30.49 in 10.0 mi Calm Calm - N/A   Clear
5:53 AM 18.0 °F - 14.0 °F 84% 30.51 in 10.0 mi Calm Calm - N/A   Clear
6:53 AM 15.1 °F - 12.0 °F 88% 30.51 in 9.0 mi Calm Calm - N/A   Clear
7:53 AM 16.0 °F - 12.9 °F 88% 30.53 in 10.0 mi Calm Calm - N/A   Clear
8:21 AM 19.4 °F - 14.0 °F 80% 30.40 in 7.0 mi Calm Calm - N/A   Partly Cloudy
8:53 AM 21.0 °F - 19.9 °F 96% 30.53 in 7.0 mi Calm Calm - N/A   Unknown
10:53 AM 30.9 °F 26.2 °F 25.0 °F 79% 30.52 in 10.0 mi WSW 4.6 mph - N/A   Clear
11:53 AM 36.0 °F - 23.0 °F 59% 30.48 in 10.0 mi Calm Calm - N/A   Clear
12:53 PM 39.0 °F - 23.0 °F 53% 30.43 in 10.0 mi Calm Calm - N/A   Clear
1:53 PM 42.1 °F - 23.0 °F 47% 30.41 in 10.0 mi Calm Calm - N/A   Clear
2:53 PM 43.0 °F 41.3 °F 23.0 °F 45% 30.40 in 10.0 mi SW 3.5 mph - N/A   Clear
3:53 PM 44.1 °F 42.5 °F 21.0 °F 40% 30.39 in 10.0 mi SSW 3.5 mph - N/A   Clear
4:53 PM 41.0 °F 39.0 °F 21.9 °F 47% 30.40 in 10.0 mi South 3.5 mph - N/A   Clear
5:53 PM 34.0 °F - 23.0 °F 64% 30.41 in 10.0 mi Calm Calm - N/A   Clear
6:53 PM 28.9 °F - 21.9 °F 75% 30.44 in 10.0 mi Calm Calm - N/A   Clear
7:53 PM 27.0 °F - 21.0 °F 78% 30.44 in 10.0 mi Calm Calm - N/A   Clear
8:53 PM 27.0 °F - 21.0 °F 78% 30.44 in 10.0 mi Calm Calm - N/A   Clear
9:53 PM 24.1 °F - 19.9 °F 84% 30.45 in 10.0 mi Calm Calm - N/A   Clear
10:53 PM 21.9 °F - 19.0 °F 89% 30.44 in 10.0 mi Calm Calm - N/A   Clear
11:53 PM 21.9 °F - 17.1 °F 82% 30.45 in 10.0 mi Calm Calm - N/A   Clear